Weather History for Elefsis, Greece

Change the Weather History Date:

Wednesday, May 1, 2013

  Actual Average Record
Temperature  
Mean Temperature 79 °F -  
Max Temperature 89 °F 77 °F 89 °F (2013)
Min Temperature 69 °F 57 °F 50 °F (1997)
Cooling Degree Days 14    
Growing Degree Days 29 (Base 50)    
Moisture  
Dew Point 42 °F    
Average Humidity 26    
Maximum Humidity 38    
Minimum Humidity 19    
Precipitation  
Precipitation 0.00 in - - ()
Sea Level Pressure  
Sea Level Pressure 30.01 in    
Wind  
Wind Speed 9 mph ()    
Max Wind Speed 15 mph    
Max Gust Speed -    
Averages and records for this station are not official NWS values.
T = Trace of Precipitation, MM = Missing Value Source: Averaged Metar Reports

Daily Weather History Graph

Daily Weather History Graph

Search for Another Location

Airport:

Trip Planner

Search our weather history database for the weather conditions in past years. The results will help you decide how hot, cold, wet, or windy it might be!

Date:

Astronomy

May. 01, 2013 Rise Set
Actual Time 6:29 AM EEST 8:16 PM EEST
Civil Twilight 6:01 AM EEST 8:45 PM EEST
Nautical Twilight 5:26 AM EEST 9:19 PM EEST
Astronomical Twilight 4:50 AM EEST 9:56 PM EEST
Moon 1:11 AM EEST (5/1) 11:46 AM EEST (5/1)
Length of Visible Light 14h 43m
Length of Day
13h 47m
Waning Gibbous, 62% of the Moon is Illuminated
May 1
Waning Gibbous
May 2
Last Quarter
May 10
New
May 18
First Quarter
May 25
Full

Hourly Weather History & Observations

Time (EEST) Temp. Dew Point Humidity Pressure Visibility Wind Dir Wind Speed Gust Speed Precip Events Conditions
12:50 AM 71.6 °F 41.0 °F 33% 30.06 in - North 6.9 mph - N/A   Clear
1:50 AM 69.8 °F 42.8 °F 38% 30.06 in - North 6.9 mph - N/A   Clear
2:50 AM 69.8 °F 42.8 °F 38% 30.06 in - NNW 6.9 mph - N/A   Clear
3:50 AM 71.6 °F 41.0 °F 33% 30.04 in - NNW 11.5 mph - N/A   Clear
4:50 AM 73.4 °F 42.8 °F 33% 30.04 in - NNW 13.8 mph - N/A   Clear
5:50 AM 71.6 °F 42.8 °F 35% 30.04 in - NNW 12.7 mph - N/A   Clear
6:20 AM 71.6 °F 44.6 °F 38% 30.04 in - NNW 9.2 mph - N/A   Clear
6:50 AM 73.4 °F 42.8 °F 33% 30.04 in - NNW 9.2 mph - N/A   Clear
7:20 AM 73.4 °F 42.8 °F 33% 30.06 in - North 8.1 mph - N/A   Clear
7:50 AM 75.2 °F 42.8 °F 31% 30.06 in - NNW 9.2 mph - N/A   Clear
8:20 AM 77.0 °F 42.8 °F 29% 30.06 in - NNW 10.4 mph - N/A   Clear
8:50 AM 78.8 °F 44.6 °F 30% 30.06 in - NNW 9.2 mph - N/A   Clear
9:20 AM 80.6 °F 44.6 °F 28% 30.06 in - NNW 10.4 mph - N/A   Clear
9:50 AM 82.4 °F 44.6 °F 26% 30.06 in - NW 10.4 mph - N/A   Clear
10:20 AM 82.4 °F 44.6 °F 26% 30.06 in - NNW 11.5 mph - N/A   Clear
10:50 AM 84.2 °F 44.6 °F 25% 30.06 in - NNW 10.4 mph - N/A   Clear
11:20 AM 86.0 °F 44.6 °F 23% 30.04 in - NNW 13.8 mph - N/A   Clear
11:50 AM 86.0 °F 44.6 °F 23% 30.04 in - NNW 12.7 mph - N/A   Clear
12:20 PM 87.8 °F 42.8 °F 21% 30.04 in - North 13.8 mph - N/A   Clear
12:50 PM 87.8 °F 42.8 °F 21% 30.01 in - North 11.5 mph - N/A   Clear
1:20 PM 87.8 °F 41.0 °F 19% 30.01 in - North 15.0 mph - N/A   Clear
1:50 PM 87.8 °F 42.8 °F 21% 30.01 in - North 12.7 mph - N/A   Clear
2:20 PM 89.6 °F 42.8 °F 20% 30.01 in - North 13.8 mph - N/A   Clear
2:50 PM 89.6 °F 42.8 °F 20% 29.98 in - NNW 15.0 mph - N/A   Clear
3:20 PM 89.6 °F 42.8 °F 20% 29.98 in - NNW 15.0 mph - N/A   Clear
3:50 PM 89.6 °F 42.8 °F 20% 29.98 in - North 12.7 mph - N/A   Clear
4:20 PM 89.6 °F 42.8 °F 20% 29.98 in - North 11.5 mph - N/A   Clear
4:50 PM 87.8 °F 44.6 °F 22% 29.98 in - North 11.5 mph - N/A   Clear
5:20 PM 87.8 °F 44.6 °F 22% 29.98 in - North 10.4 mph - N/A   Clear
5:50 PM 87.8 °F 42.8 °F 21% 29.98 in - NNW 11.5 mph - N/A   Clear
6:20 PM 86.0 °F 42.8 °F 22% 29.95 in - North 9.2 mph - N/A   Clear
6:50 PM 86.0 °F 42.8 °F 22% 29.95 in - North 10.4 mph - N/A   Clear
7:20 PM 84.2 °F 41.0 °F 22% 29.95 in - North 9.2 mph - N/A   Clear
7:50 PM 82.4 °F 41.0 °F 23% 29.98 in - North 9.2 mph - N/A   Clear
8:20 PM 80.6 °F 41.0 °F 24% 29.98 in - North 10.4 mph - N/A   Clear
8:50 PM 78.8 °F 42.8 °F 28% 29.98 in - North 10.4 mph - N/A   Clear
9:20 PM 78.8 °F 39.2 °F 24% 29.98 in - NNW 11.5 mph - N/A   Clear
9:50 PM 77.0 °F 41.0 °F 28% 29.98 in - Calm Calm - N/A   Clear
10:20 PM 78.8 °F 37.4 °F 23% 29.98 in - Calm Calm - N/A   Clear
10:50 PM 75.2 °F 37.4 °F 25% 29.98 in - Calm Calm - N/A   Clear
11:20 PM 75.2 °F 37.4 °F 25% 29.98 in - WNW 4.6 mph - N/A   Clear
11:50 PM 75.2 °F 33.8 °F 22% 29.98 in - NW 8.1 mph - N/A   Clear